Volver al catálogo

STARLINK-2530

ActivoComunicacionesVLEO
NORAD 48303·PAYLOAD·🇺🇸 United States

Lanzado Apr 29, 2021 desde Cape Canaveral Space Force Station

Loading…

Próximos Pases (próximas 24 horas)

TLE

ActualizadoSource: CelesTrak SupGP

Época: Sep 14, 2026, 21:09 UTC

1 48303C 21036AD  26257.88173611  .00026913  00000+0  86528-3 0  2576
2 48303  53.1566 287.9920 0001276  93.0275  66.2780 15.31694936    12

Sigue STARLINK-2530 en tiempo real con AllMySat

Download on the App Store